Location: Marsån
(66.4167°N, 22.2833°E)
Time: 08:14:09
(UTC+00:00)

SPOT 1/Viking Rocket - Pass Details

Date: 24 February 2024
Orbit: 775 x 791 km, 98.3° (Epoch: 20 April)

Event Time Altitude Azimuth Distance (km) Brightness Sun altitude
Rises 17:49:07 0° 168° (SSE) 3,255 6.5 -15.1°
Reaches altitude 10° 17:51:26 10° 172° (S) 2,332 5.8 -15.4°
Maximum altitude 17:56:33 66° 254° (WSW) 859 3.9 -15.9°
Drops below altitude 10° 18:01:44 10° 337° (NNW) 2,355 6.5 -16.4°
Sets 18:04:06 0° 341° (NNW) 3,289 7.3 -16.6°
